Location: Kielce
(50.8833°N, 20.6167°E)
Time: 20:45:44
(UTC+02:00)

Vanguard 2 Rocket - Pass Details

Date: 21 April 2021
Orbit: 553 x 3326 km, 32.9° (Epoch: 06 May)

Event Time Altitude Azimuth Distance (km) Brightness Sun altitude
Rises 20:12:09 0° 274° (W) 7,267 13.0 -5.0°
Reaches altitude 10° 20:19:57 10° 258° (WSW) 5,991 11.9 -6.1°
Maximum altitude 20:29:10 17° 227° (SW) 4,898 10.8 -7.4°
Drops below altitude 10° 20:36:49 10° 194° (SSW) 4,795 10.4 -8.4°
Sets 20:41:56 0° 175° (S) 5,271 10.4 -9.1°
